TimeCST,TemperatureF,Dew PointF,Humidity,Sea Level PressureIn,VisibilityMPH,Wind Direction,Wind SpeedMPH,Gust SpeedMPH,PrecipitationIn,Events,Conditions,WindDirDegrees,DateUTC
12:15 AM,37.4,28.4,70,29.99,10.0,ESE,8.1,-,N/A,,Overcast,120,2014-02-17 06:15:00
12:35 AM,37.4,28.4,70,29.99,10.0,ESE,10.4,16.1,N/A,,Overcast,120,2014-02-17 06:35:00
12:55 AM,37.4,28.4,70,29.98,10.0,SE,10.4,-,N/A,,Overcast,130,2014-02-17 06:55:00
1:15 AM,39.2,28.4,65,29.97,10.0,ESE,8.1,-,N/A,,Overcast,120,2014-02-17 07:15:00
1:35 AM,37.4,28.4,70,29.95,10.0,SE,10.4,-,N/A,,Overcast,130,2014-02-17 07:35:00
1:55 AM,37.4,28.4,70,29.95,10.0,SE,9.2,-,N/A,,Overcast,140,2014-02-17 07:55:00
2:15 AM,37.4,26.6,65,29.94,10.0,SE,9.2,-,N/A,,Overcast,140,2014-02-17 08:15:00
2:35 AM,37.4,28.4,70,29.93,10.0,ESE,9.2,-,N/A,,Overcast,120,2014-02-17 08:35:00
2:55 AM,37.4,28.4,70,29.91,10.0,SE,9.2,-,N/A,,Overcast,130,2014-02-17 08:55:00
3:15 AM,37.4,28.4,70,29.90,10.0,SE,9.2,-,N/A,,Overcast,130,2014-02-17 09:15:00
3:35 AM,37.4,26.6,65,29.89,10.0,SE,9.2,-,N/A,,Overcast,130,2014-02-17 09:35:00
3:55 AM,37.4,26.6,65,29.89,10.0,SE,6.9,-,N/A,,Overcast,130,2014-02-17 09:55:00
4:15 AM,37.4,26.6,65,29.89,10.0,SSE,8.1,16.1,N/A,,Overcast,150,2014-02-17 10:15:00
4:35 AM,37.4,26.6,65,29.88,10.0,SSE,9.2,-,N/A,,Overcast,150,2014-02-17 10:35:00
4:55 AM,37.4,26.6,65,29.86,10.0,SSE,10.4,18.4,N/A,,Overcast,150,2014-02-17 10:55:00
5:15 AM,37.4,26.6,65,29.87,10.0,SSE,11.5,18.4,N/A,,Mostly Cloudy,160,2014-02-17 11:15:00
5:35 AM,37.4,26.6,65,29.86,10.0,SSE,10.4,16.1,N/A,,Overcast,160,2014-02-17 11:35:00
5:55 AM,37.4,26.6,65,29.84,10.0,SSE,12.7,-,N/A,,Overcast,160,2014-02-17 11:55:00
6:15 AM,37.4,28.4,70,29.83,9.0,SSE,8.1,-,N/A,,Overcast,150,2014-02-17 12:15:00
6:35 AM,37.4,28.4,70,29.83,10.0,SSE,5.8,-,N/A,,Overcast,150,2014-02-17 12:35:00
6:55 AM,37.4,30.2,75,29.81,10.0,SSE,10.4,-,N/A,,Overcast,160,2014-02-17 12:55:00
7:15 AM,37.4,30.2,75,29.82,9.0,South,10.4,-,N/A,,Overcast,170,2014-02-17 13:15:00
7:35 AM,39.2,30.2,70,29.82,10.0,South,17.3,20.7,N/A,,Overcast,170,2014-02-17 13:35:00
7:55 AM,39.2,32.0,75,29.83,9.0,South,11.5,-,N/A,,Overcast,190,2014-02-17 13:55:00
8:15 AM,39.2,32.0,75,29.82,8.0,South,12.7,-,N/A,,Overcast,180,2014-02-17 14:15:00
8:35 AM,41.0,33.8,76,29.82,8.0,South,9.2,-,N/A,,Overcast,180,2014-02-17 14:35:00
8:55 AM,41.0,33.8,76,29.81,8.0,South,9.2,17.3,N/A,,Overcast,190,2014-02-17 14:55:00
9:15 AM,42.8,33.8,70,29.81,8.0,SSW,11.5,-,N/A,,Overcast,200,2014-02-17 15:15:00
9:35 AM,42.8,33.8,70,29.81,8.0,SSW,6.9,-,N/A,,Overcast,200,2014-02-17 15:35:00
9:55 AM,42.8,33.8,70,29.83,9.0,WSW,4.6,-,N/A,,Overcast,250,2014-02-17 15:55:00
10:15 AM,42.8,35.6,76,29.85,9.0,West,3.5,-,N/A,,Overcast,280,2014-02-17 16:15:00
10:35 AM,44.6,35.6,71,29.85,10.0,WSW,10.4,18.4,N/A,,Overcast,250,2014-02-17 16:35:00
10:55 AM,48.2,37.4,66,29.85,10.0,West,17.3,20.7,N/A,,Mostly Cloudy,260,2014-02-17 16:55:00
11:15 AM,51.8,37.4,58,29.87,10.0,West,16.1,28.8,N/A,,Mostly Cloudy,280,2014-02-17 17:15:00
11:35 AM,48.2,33.8,58,29.91,10.0,WNW,15.0,28.8,N/A,,Overcast,290,2014-02-17 17:35:00
11:55 AM,48.2,33.8,58,29.93,10.0,WNW,13.8,25.3,N/A,,Overcast,290,2014-02-17 17:55:00
12:15 PM,48.2,33.8,58,29.93,10.0,West,17.3,24.2,N/A,,Mostly Cloudy,280,2014-02-17 18:15:00
12:35 PM,48.2,30.2,50,29.96,10.0,WNW,16.1,25.3,N/A,,Partly Cloudy,290,2014-02-17 18:35:00
12:55 PM,48.2,30.2,50,29.97,10.0,WNW,15.0,23.0,N/A,,Clear,300,2014-02-17 18:55:00
1:15 PM,50.0,28.4,43,29.98,10.0,NW,15.0,24.2,N/A,,Clear,310,2014-02-17 19:15:00
1:35 PM,50.0,28.4,43,29.98,10.0,WNW,16.1,23.0,N/A,,Clear,290,2014-02-17 19:35:00
1:55 PM,51.8,28.4,41,29.98,10.0,NW,10.4,17.3,N/A,,Clear,310,2014-02-17 19:55:00
2:15 PM,51.8,28.4,41,29.96,10.0,NW,11.5,17.3,N/A,,Clear,310,2014-02-17 20:15:00
2:35 PM,51.8,28.4,41,29.97,10.0,WNW,15.0,19.6,N/A,,Clear,290,2014-02-17 20:35:00
2:55 PM,53.6,28.4,38,29.98,10.0,WNW,9.2,21.9,N/A,,Clear,290,2014-02-17 20:55:00
3:15 PM,53.6,28.4,38,29.98,10.0,West,17.3,20.7,N/A,,Clear,260,2014-02-17 21:15:00
3:35 PM,53.6,26.6,35,29.99,10.0,West,12.7,24.2,N/A,,Clear,270,2014-02-17 21:35:00
3:55 PM,53.6,24.8,33,30.00,10.0,West,11.5,-,N/A,,Clear,270,2014-02-17 21:55:00
4:15 PM,55.4,24.8,31,30.01,10.0,West,11.5,19.6,N/A,,Clear,280,2014-02-17 22:15:00
4:35 PM,53.6,19.4,26,30.04,10.0,WNW,12.7,20.7,N/A,,Clear,290,2014-02-17 22:35:00
4:55 PM,53.6,19.4,26,30.05,10.0,WNW,13.8,21.9,N/A,,Clear,290,2014-02-17 22:55:00
5:15 PM,51.8,17.6,26,30.05,10.0,WNW,8.1,20.7,N/A,,Clear,290,2014-02-17 23:15:00
5:35 PM,51.8,17.6,26,30.06,10.0,WNW,10.4,17.3,N/A,,Clear,290,2014-02-17 23:35:00
5:55 PM,50.0,17.6,28,30.07,10.0,WNW,8.1,-,N/A,,Clear,290,2014-02-17 23:55:00
6:15 PM,48.2,17.6,30,30.07,10.0,West,6.9,-,N/A,,Clear,280,2014-02-18 00:15:00
6:35 PM,48.2,19.4,32,30.07,10.0,West,5.8,-,N/A,,Clear,270,2014-02-18 00:35:00
6:55 PM,48.2,19.4,32,30.07,10.0,WSW,3.5,-,N/A,,Clear,250,2014-02-18 00:55:00
7:15 PM,46.4,19.4,34,30.06,10.0,SW,3.5,-,N/A,,Clear,230,2014-02-18 01:15:00
7:35 PM,44.6,19.4,37,30.06,10.0,SW,4.6,-,N/A,,Clear,230,2014-02-18 01:35:00
7:55 PM,42.8,19.4,39,30.07,10.0,SSW,4.6,-,N/A,,Clear,210,2014-02-18 01:55:00
8:15 PM,42.8,19.4,39,30.07,10.0,SSW,5.8,-,N/A,,Clear,210,2014-02-18 02:15:00
8:35 PM,41.0,19.4,42,30.07,10.0,SSW,6.9,-,N/A,,Clear,210,2014-02-18 02:35:00
8:55 PM,39.2,19.4,45,30.08,10.0,SSW,5.8,-,N/A,,Clear,210,2014-02-18 02:55:00
9:15 PM,39.2,21.2,49,30.08,10.0,SSW,4.6,-,N/A,,Clear,210,2014-02-18 03:15:00
9:35 PM,39.2,19.4,45,30.08,10.0,SSW,5.8,-,N/A,,Clear,200,2014-02-18 03:35:00
9:55 PM,39.2,19.4,45,30.08,10.0,SSW,4.6,-,N/A,,Clear,200,2014-02-18 03:55:00
10:15 PM,39.2,21.2,49,30.08,10.0,SSW,5.8,-,N/A,,Clear,200,2014-02-18 04:15:00
10:35 PM,37.4,19.4,48,30.07,10.0,South,4.6,-,N/A,,Clear,180,2014-02-18 04:35:00
10:55 PM,37.4,19.4,48,30.07,10.0,SSW,6.9,-,N/A,,Clear,200,2014-02-18 04:55:00
11:15 PM,35.6,19.4,52,30.07,10.0,SSW,4.6,-,N/A,,Clear,210,2014-02-18 05:15:00
11:35 PM,37.4,19.4,48,30.06,10.0,SSW,4.6,-,N/A,,Clear,210,2014-02-18 05:35:00
11:55 PM,35.6,19.4,52,30.06,10.0,SSW,5.8,-,N/A,,Clear,200,2014-02-18 05:55:00